GW1109 Weather Reports


time (UTC)temp
C
wind
direction
speed
KPH
gust
KPH
rain 1hr
cm
rain 24hr
cm
rain mn
cm
humidity
%
barometer
mb
20260904023054 20 0 0.0 0.0 0.00 0.58 0.58 100 1012.2
20260904021549 20 0 0.0 0.0 0.00 0.58 0.58 100 1012.4
20260904020058 20 0 0.0 0.0 0.00 0.58 0.58 100 1012.5
20260904014613 20 0 0.0 0.0 0.00 0.58 0.58 100 1012.6
20260904013049 20 0 0.0 0.0 0.00 0.58 0.58 100 1012.7
20260904011602 20 0 0.0 0.0 0.00 0.58 0.58 100 1012.7
20260904010058 20 0 0.0 0.0 0.00 0.58 0.58 100 1012.7
20260904004554 20 0 0.0 0.0 0.00 0.58 0.58 100 1012.6
20260904003104 20 0 0.0 3.2 0.00 0.58 0.58 100 1012.4
20260904001559 20 0 0.0 3.2 0.00 0.58 0.58 100 1012.4
20260904000059 20 0 0.0 1.6 0.00 0.58 0.58 100 1012.1
20260903234552 20 107 0.0 3.2 0.00 0.58 0.58 100 1012.0
20260903233051 20 0 0.0 4.8 0.00 0.58 0.58 100 1012.0
20260903231606 20 0 0.0 0.0 0.00 0.58 0.58 100 1012.1
20260903224555 20 0 0.0 0.0 0.00 0.58 0.58 100 1012.2
20260903223051 20 0 0.0 0.0 0.00 0.58 0.58 100 1012.4
20260903221548 20 0 0.0 0.0 0.00 0.58 0.58 100 1012.4
20260903220120 20 0 0.0 0.0 0.00 0.58 0.58 100 1012.4
20260903214556 20 0 0.0 0.0 0.00 0.58 0.58 100 1012.5
20260903213051 20 0 0.0 0.0 0.00 0.58 0.58 100 1012.8
20260903211604 20 0 0.0 0.0 0.00 0.58 0.58 100 1012.5
20260903210112 20 0 0.0 0.0 0.00 0.58 0.58 100 1012.5
20260903204555 20 0 0.0 0.0 0.00 0.58 0.58 100 1012.6
20260903203052 20 0 0.0 0.0 0.00 0.58 0.58 100 1012.9
20260903201552 20 0 0.0 0.0 0.00 0.58 0.58 100 1012.8
20260903200100 20 0 0.0 0.0 0.00 0.58 0.58 100 1012.9
20260903194555 20 0 0.0 0.0 0.00 0.58 0.58 100 1013.0
20260903193049 20 0 0.0 3.2 0.00 0.58 0.58 100 1013.0
20260903191601 20 0 0.0 4.8 0.00 0.58 0.58 100 1013.0
20260903190058 20 0 0.0 3.2 0.00 0.58 0.58 100 1013.3
20260903184556 20 0 0.0 3.2 0.00 0.58 0.58 100 1013.4
20260903183051 20 0 0.0 1.6 0.00 0.58 0.58 100 1013.5
20260903181559 20 0 0.0 3.2 0.00 0.58 0.58 100 1013.7
20260903180100 20 117 0.0 4.8 0.00 0.58 0.58 100 1013.9
20260903174554 20 0 0.0 1.6 0.00 0.58 0.58 100 1014.1
20260903173049 20 0 1.6 6.4 0.00 0.58 0.58 100 1013.7
20260903171609 20 0 0.0 4.8 0.00 0.58 0.58 100 1013.7
20260903170100 20 138 0.0 6.4 0.00 0.58 0.58 100 1013.7
20260903164604 20 111 1.6 4.8 0.00 0.58 0.58 100 1014.1
20260903163049 20 111 1.6 4.8 0.00 0.58 0.58 100 1014.0
20260903161601 20 77 1.6 6.4 0.00 0.58 0.58 100 1014.3
20260903160059 20 85 1.6 6.4 0.03 0.58 0.58 100 1014.4
20260903154552 20 55 0.0 4.8 0.03 0.58 0.58 100 1014.7
20260903153049 20 119 1.6 4.8 0.03 0.58 0.58 100 1014.9
20260903151549 20 0 1.6 6.4 0.03 0.58 0.58 100 1014.9
20260903150101 20 160 0.0 6.4 0.00 0.56 0.56 100 1015.1
20260903144552 20 205 0.0 6.4 0.00 0.56 0.56 100 1015.3
20260903143111 20 187 0.0 4.8 0.00 0.56 0.56 100 1015.3
20260903141600 20 148 1.6 6.4 0.00 0.56 0.56 100 1015.5
20260903140101 20 132 0.0 4.8 0.00 0.56 0.56 100 1015.4
20260903134553 20 0 1.6 4.8 0.03 0.56 0.56 100 1015.5
20260903133111 20 194 1.6 3.2 0.03 0.56 0.56 100 1015.4
20260903131610 19 146 0.0 6.4 0.05 0.56 0.56 100 1015.4
20260903130120 19 116 1.6 6.4 0.05 0.56 0.56 100 1015.6
20260903124553 19 0 1.6 4.8 0.05 0.53 0.53 100 1015.8
20260903123100 18 136 0.0 8.0 0.08 0.53 0.53 100 1015.9
20260903121558 18 0 0.0 8.0 0.08 0.51 0.51 100 1016.1
20260903120055 18 0 1.6 6.4 0.13 0.51 0.51 100 1016.3
20260903114548 18 0 1.6 6.4 0.13 0.48 0.48 100 1016.4
20260903113101 18 0 0.0 6.4 0.10 0.46 0.46 100 1016.5
20260903111606 18 0 0.0 6.4 0.08 0.43 0.43 100 1016.2
20260903110051 18 0 0.0 3.2 0.03 0.38 0.38 100 1016.2
20260903104549 18 0 1.6 4.8 0.00 0.36 0.36 100 1016.1
20260903103101 17 146 0.0 6.4 0.00 0.36 0.36 100 1016.0
20260903101603 17 0 0.0 4.8 0.00 0.36 0.36 100 1016.1
20260903100054 17 0 0.0 3.2 0.05 0.36 0.36 100 1016.2
20260903094554 17 0 0.0 4.8 0.15 0.36 0.36 100 1016.5
20260903093112 17 0 0.0 3.2 0.36 0.36 0.36 100 1016.6
20260903091557 17 223 1.6 11.3 0.36 0.36 0.36 100 1016.9
20260903090051 18 113 1.6 9.7 0.30 0.30 0.30 100 1017.0
20260903084601 18 39 0.0 6.4 0.18 0.18 0.18 100 1017.0
20260903083057 18 331 4.8 12.9 0.00 0.00 0.00 100 1017.1
20260903081550 18 0 0.0 0.0 0.00 0.00 0.00 100 1016.7
20260903080051 18 0 0.0 4.8 0.00 0.00 0.00 100 1016.8
20260903074557 18 0 0.0 4.8 0.00 0.00 0.00 100 1016.8
20260903073052 18 0 0.0 1.6 0.00 0.00 0.00 100 1016.8
20260903071547 18 168 1.6 4.8 0.00 0.00 0.00 100 1016.9
20260903070048 18 0 0.0 3.2 0.00 0.00 0.00 100 1017.3
20260903064554 18 0 0.0 8.0 0.00 0.00 0.00 100 1017.5
20260903063050 18 152 1.6 8.0 0.00 0.00 0.00 100 1018.0
20260903061606 18 200 1.6 8.0 0.00 0.00 0.00 100 1018.5
20260903060056 18 140 0.0 3.2 0.00 0.00 0.00 100 1018.9
20260903054559 18 0 0.0 3.2 0.00 0.00 0.00 100 1018.7
20260903053100 18 74 0.0 3.2 0.00 0.00 0.00 100 1018.6
20260903051556 18 0 0.0 3.2 0.00 0.00 0.00 100 1018.9
20260903050052 18 0 0.0 3.2 0.00 0.00 0.00 100 1018.9
20260903044558 18 0 0.0 3.2 0.00 0.00 0.00 100 1019.0
20260903043059 18 0 0.0 3.2 0.00 0.00 0.00 100 1019.3
20260903041557 18 0 0.0 3.2 0.00 0.00 0.00 100 1019.3
20260903040104 18 55 0.0 1.6 0.00 0.00 0.00 100 1019.3
20260903034603 18 0 0.0 1.6 0.00 0.00 0.00 100 1020.0
20260903033057 17 0 0.0 1.6 0.00 0.00 0.00 100 1020.4
20260903031552 17 0 0.0 1.6 0.00 0.00 0.00 100 1020.2
20260903030103 17 0 0.0 1.6 0.00 0.00 0.00 100 1020.1
20260903024558 17 0 0.0 1.6 0.00 0.00 0.00 99 1020.2